ARIANE 44LP DEB, 25542

Orbit data source: Space-Track

ARIANE 44LP DEB, 25542 is space debris in HEO originally from a launch on Sun, 11 Dec 1988 UTC launched from the French Guiana (FRGUI). Debris objects in space refer to the collection of defunct objects orbiting the Earth. Examples of debris include non-operational satellites, rocket bodies, and fragments generated from explosions, collisions, or faulty payload assembly.

Loading next visibility...
Identifier
25542, 1988-109J
Orbit
HEO
Country
Flag of FRFR
Related business
Manufacturer
Unknown
Mission
Spacecraft
Bus & Motor
Unknown
Mass
Unknown
Launch date (UTC)
1988-12-11 (38 years ago)
Launch vehicle
Unknown
Launch site
French Guiana (FRGUI)
Object type
Payload
Rocket body
Debris
Shape & HBR
Unknown shape, 2.0 m
Radar Cross Section
Large (>1 m²)

Expand to show TLE details & history
Last TLE update: 3 days ago

TLE from 3 days ago
0 ARIANE 44LP DEB
1 25542U 88109J   26170.94212756  .00000000  00000-0  23035-3 0  9992
2 25542   6.5957 183.2174 7136808 158.7352 260.6216  2.33854187238537
Epoch: 2026-06-19T22:36Z
TLE epoch observation values (Epoch: 2026-06-19T22:36:39.821Z)
Latitude
-0.00001°
Longitude
-63.987°
Altitude
28,671.888 km
Speed
2.474 km/s
True Right ascension
12h 13m 22s
True Declination
0° 00' 00"
Sunlit
Object was in daylight at epoch
Visualization orbit readout
Latitude
Unknown
Longitude
Unknown
Altitude
Unknown
Speed
Unknown
Apparent Right ascension
Unknown
Apparent Declination
Unknown
Sunlit
N/A
Visualization observer readout
Local Sidereal Time
01:06:56
Azimuth
Unknown
Elevation
Unknown
Doppler factor
Unknown
Orbital elements
Apogee altitude
34,717.606 km
Perigee altitude
488.078 km
Semi-major axis
23,980.979 km
Eccentricity
0.71368
Inclination
6.5957°
RAAN
183.2174°
Arg. of periapsis
158.7352°
True anomaly
201.3522°
Mean anomaly
260.6216°
Eccentric anomaly
229.51908°
Mean motion
0.58444 °/min
Orbital period
615.97 mins
BSTAR
0.00023035
Loading maneuver chart data...
Computing Atmospheric mass density...
Loading historical data...
Loading historical data...
Loading historical data...
Loading historical data...
Loading historical data...
Loading historical data...
Loading historical data...

Documentation

Showing up to 5 results
|